[[{"header":{"parameterUnit":"m.s-1","parameterCategory":1,"la1":30.2991,"la2":30.254,"lo1":-89.0895,"lo2":-89.0444,"dy":0.0017,"dx":0.0017,"nx":28,"ny":28,"refTime":"2024-12-10T03:00:00:Z","depth":0,"parameterNumber":2,"parameterNumberName":"U-component_of_WINDS"},"data":[0,0,0,0,0,0,0,0,0,0,0,0,0,0,0,0,0,0,0,0,0,0,0,0,0,0,0,0,0,0,0,0,0,0,0,0,0,0,0,0,0,0,0,0,0,0,0,0,0,0,0,0,0,0,0,0,0,0,3.0453,3.0453,0,3.0454,3.0454,3.0454,3.037,3.0368,3.0365,3.0363,3.0366,3.0368,3.037,0,0,0,0,0,0,0,0,0,0,0,0,0,3.0377,3.0379,3.0453,3.0453,3.0453,3.0454,3.0454,3.0454,3.037,3.0368,3.0365,3.0362,3.0365,3.0368,3.037,0,0,0,0,0,0,0,0,0,0,0,0,0,3.0398,3.038,3.0453,3.0411,3.0407,3.0454,3.0454,3.0454,3.0371,3.0367,3.0364,3.0361,3.0364,3.0368,3.0371,3.0458,0,0,3.0381,3.0382,0,0,0,0,0,0,0,0,3.0397,3.0401,3.0417,3.0414,3.041,3.0408,3.0429,3.0456,3.0372,3.0385,3.0363,3.0359,3.0383,3.0384,3.0392,3.0458,3.0458,3.0381,3.0383,3.0384,3.0385,0,0,0,0,0,0,0,3.0395,3.04,3.0453,3.0417,3.0413,3.0392,3.0391,3.0433,3.0403,3.0383,3.0377,3.0378,3.038,3.0389,3.0392,3.0458,3.0381,3.0384,3.0386,3.0387,3.0595,3.0599,0,0,0,0,0,0,3.04,3.0399,3.0453,3.0453,3.0395,3.0396,3.0395,3.0412,3.0402,3.0397,3.0381,3.0375,3.0385,3.0388,3.0391,3.0492,3.0384,3.0387,3.0389,3.0592,3.0596,3.06,0,0,0,0,0,0,3.0398,3.0405,3.0453,3.0425,3.0429,3.0401,3.0421,3.0414,3.0423,3.04,3.0395,3.0396,3.0383,3.0387,3.0442,3.0491,3.0389,3.0392,3.0588,3.0593,3.0598,3.0695,0,0,0,0,0,0,3.0397,3.0405,3.0438,3.0426,3.0431,3.0504,3.0424,3.0417,3.0428,3.042,3.0413,3.0408,3.038,3.0437,3.0445,3.0493,3.0394,3.0583,3.059,3.0596,3.0687,3.0703,3.0716,0,0,0,0,0,3.0394,3.0466,3.044,3.0447,3.0471,3.0507,3.0509,3.0476,3.0433,3.0465,3.0451,3.0409,3.0485,3.0444,3.0452,3.0502,3.058,3.0588,3.0596,3.068,3.07,3.0716,0,0,0,0,0,0,3.0484,3.0463,3.0435,3.0504,3.0508,3.0492,3.0532,3.0497,3.0513,3.0504,3.0462,3.0461,3.0523,3.0518,3.0473,3.0585,3.0525,3.0535,3.0586,3.0604,3.0618,3.0618,3.0397,0,0,0,0,0,3.0512,3.0543,3.0523,3.0586,3.0589,3.0561,3.0575,3.0549,3.0551,3.0552,3.0541,3.0545,3.057,3.0587,3.0608,3.0686,3.0683,3.0725,3.0739,3.0751,3.076,3.08,3.0818,3.0626,3.0626,3.0626,0,0,3.0571,3.0563,3.0584,3.0604,3.0603,3.0636,3.0563,3.06,3.0623,3.0557,3.0608,3.0601,3.0603,3.0669,3.0698,3.0667,3.0812,3.0762,3.0771,3.0773,3.081,3.0828,3.0844,3.0632,3.0631,3.063,0,0,3.0693,3.069,3.0742,3.0743,3.0743,3.0724,3.0737,3.0726,3.0719,3.0769,3.072,3.0748,3.0791,3.0794,3.0801,3.0925,3.0886,3.0933,3.1009,3.1048,3.1063,3.1076,3.1119,3.1135,3.0942,3.0942,3.0942,0,3.0765,3.0811,3.0773,3.0814,3.0823,3.0765,3.0817,3.082,3.0828,3.0836,3.0801,3.0854,3.0851,3.0917,3.0947,3.0955,3.0968,3.0933,3.1064,3.1077,3.1089,3.1129,3.1145,3.0948,3.0947,3.0947,3.0946,0,3.0899,3.0932,3.0974,3.0982,3.0997,3.1043,3.1013,3.1032,3.1005,3.0989,3.1041,3.1036,3.1054,3.1068,3.1042,3.1131,3.1111,3.1071,3.1009,3.1113,3.115,3.1166,3.0956,3.0954,3.0952,3.0951,0,0,3.1078,3.1064,3.108,3.1083,3.1079,3.1103,3.1147,3.1165,3.1182,3.119,3.1225,3.1263,3.1225,3.1234,3.1207,3.1242,3.1339,3.1197,3.1197,3.1223,3.1435,3.1464,3.1483,3.1314,3.1317,3.1319,3.1434,0,3.1195,3.1268,3.1236,3.1312,3.1341,3.1287,3.1324,3.1326,3.1313,3.1336,3.1322,3.1349,3.1298,3.1302,3.1335,3.132,3.1381,3.1312,3.1345,3.1347,3.1345,3.1503,3.1534,3.1643,3.1449,3.1451,3.1453,0,3.1342,3.1354,3.1434,3.1423,3.1435,3.1469,3.1483,3.1506,3.1507,3.1495,3.1504,3.147,3.1512,3.1451,3.1508,3.1462,3.1474,3.1469,3.1472,3.1473,3.1406,3.1507,3.1678,3.1694,3.1476,3.1474,3.1473,0,3.1463,3.15,3.1551,3.1556,3.1545,3.1571,3.1568,3.1565,3.1578,3.159,3.1598,3.1615,3.1625,3.1639,3.161,3.1569,3.1671,3.1608,3.1662,3.1663,3.1685,3.1684,3.1859,3.1695,3.1695,3.1695,3.1694,0,3.1597,3.1647,3.1605,3.1637,3.1692,3.1654,3.171,3.1701,3.1699,3.1728,3.1682,3.1711,3.1672,3.1696,3.1675,3.1724,3.173,3.1721,3.1714,3.1724,3.1725,3.173,3.1721,3.1699,3.1698,3.1697,3.1696,0,3.174,3.1715,3.1767,3.1753,3.1751,3.1792,3.1779,3.1808,3.1792,3.1829,3.1836,3.1811,3.1837,3.181,3.1836,3.1821,3.1888,3.1871,3.1887,3.1882,3.1936,3.1931,3.212,3.2143,3.1966,3.1968,3.1969,0,3.1827,3.1864,3.1854,3.187,3.1869,3.1896,3.1908,3.1873,3.1888,3.1891,3.192,3.1942,3.1958,3.2004,3.1987,3.2006,3.1989,3.2054,3.1991,3.2,3.1988,3.1986,3.1989,3.2066,3.2068,3.207,3.2071,0,3.1983,3.1968,3.1987,3.2003,3.2019,3.2029,3.2036,3.2052,3.2015,3.2034,3.2061,3.2073,3.2098,3.2121,3.2135,3.2132,3.2096,3.2091,3.2104,3.2114,3.2122,3.2117,3.192,3.2087,3.2085,3.2084,3.2083,3.2083,3.21,3.213,3.2127,3.215,3.2151,3.2159,3.2185,3.2171,3.2192,3.221,3.2188,3.222,3.222,3.2234,3.2236,3.2261,3.2233,3.2253,3.2257,3.2262,3.227,3.2119,3.2263,3.2263,3.2262,3.2262,3.2262,0,3.2252,3.2247,3.2269,3.2279,3.2298,3.2262,3.2267,3.2285,3.2314,3.2316,3.2333,3.2363,3.2384,3.237,3.2389,3.2411,3.2395,3.2417,3.2414,3.2414,3.2294,3.228,3.243,3.243,3.243,3.243,3.243,3.243,3.2333,3.2382,3.2367,3.2416,3.2411,3.2441,3.2447,3.2454,3.2456,3.2491,3.2508,3.2499,3.2494,3.2512,3.2531,3.2526,3.2534,3.2563,3.2552,3.2439,3.2423,3.2407,3.2394,3.2565,3.2565,3.267,3.2671,3.2671]},{"header":{"parameterUnit":"m.s-1","parameterCategory":1,"la1":30.2991,"la2":30.254,"lo1":-89.0895,"lo2":-89.0444,"dy":0.0017,"dx":0.0017,"nx":28,"ny":28,"refTime":"2024-12-10T03:00:00:Z","depth":0,"parameterNumber":3,"parameterNumberName":"V-component_of_WINDS"},"data":[0,0,0,0,0,0,0,0,0,0,0,0,0,0,0,0,0,0,0,0,0,0,0,0,0,0,0,0,0,0,0,0,0,0,0,0,0,0,0,0,0,0,0,0,0,0,0,0,0,0,0,0,0,0,0,0,0,0,-2.772,-2.7722,0,-2.7883,-2.7885,-2.7887,-2.7866,-2.7863,-2.7861,-2.7858,-2.8026,-2.8033,-2.804,0,0,0,0,0,0,0,0,0,0,0,0,0,-2.7391,-2.7397,-2.772,-2.7722,-2.7724,-2.7883,-2.7885,-2.7887,-2.7866,-2.7863,-2.786,-2.7857,-2.8024,-2.8032,-2.8041,0,0,0,0,0,0,0,0,0,0,0,0,0,-2.7542,-2.7399,-2.7719,-2.7733,-2.7735,-2.7882,-2.7885,-2.7888,-2.7867,-2.7863,-2.7859,-2.7855,-2.8021,-2.8032,-2.8042,-2.8187,0,0,-2.8074,-2.8078,0,0,0,0,0,0,0,0,-2.7534,-2.7554,-2.7729,-2.7732,-2.7735,-2.785,-2.7831,-2.7988,-2.7868,-2.7817,-2.7858,-2.7853,-2.7971,-2.7985,-2.8025,-2.8195,-2.8202,-2.8075,-2.8081,-2.8086,-2.8089,0,0,0,0,0,0,0,-2.7523,-2.7547,-2.7784,-2.7731,-2.7735,-2.7731,-2.7748,-2.7861,-2.7915,-2.7821,-2.782,-2.784,-2.7972,-2.8015,-2.8029,-2.8204,-2.8075,-2.8084,-2.809,-2.8094,-2.8502,-2.8506,0,0,0,0,0,0,-2.7509,-2.7539,-2.7779,-2.7789,-2.7622,-2.774,-2.7759,-2.7817,-2.7913,-2.7924,-2.7843,-2.7838,-2.7999,-2.8017,-2.8035,-2.8211,-2.8086,-2.8095,-2.8101,-2.8497,-2.8503,-2.8508,0,0,0,0,0,0,-2.7502,-2.7531,-2.7773,-2.7664,-2.7694,-2.775,-2.7816,-2.7823,-2.7865,-2.793,-2.7939,-2.7877,-2.7997,-2.802,-2.8149,-2.8217,-2.81,-2.811,-2.8492,-2.8499,-2.8505,-2.8565,0,0,0,0,0,0,-2.7493,-2.7528,-2.7584,-2.7665,-2.77,-2.7884,-2.782,-2.7829,-2.7883,-2.7879,-2.7964,-2.7974,-2.7995,-2.8134,-2.816,-2.8229,-2.8118,-2.8486,-2.8495,-2.8503,-2.8557,-2.8573,-2.8587,0,0,0,0,0,-2.7481,-2.7594,-2.7587,-2.7616,-2.777,-2.7888,-2.7908,-2.793,-2.7889,-2.7945,-2.7987,-2.7971,-2.8205,-2.8147,-2.8176,-2.825,-2.8482,-2.8493,-2.8503,-2.8551,-2.857,-2.8586,0,0,0,0,0,0,-2.752,-2.7605,-2.7598,-2.774,-2.7807,-2.7884,-2.7956,-2.7949,-2.803,-2.8022,-2.8046,-2.8065,-2.8196,-2.8236,-2.817,-2.8395,-2.8338,-2.8355,-2.8365,-2.8383,-2.8398,-2.8386,-2.8126,0,0,0,0,0,-2.7544,-2.7633,-2.7703,-2.7822,-2.7856,-2.79,-2.7952,-2.7963,-2.8034,-2.8062,-2.8113,-2.8182,-2.8271,-2.8329,-2.8415,-2.8563,-2.8581,-2.8628,-2.8642,-2.8654,-2.8668,-2.875,-2.8772,-2.8542,-2.8541,-2.8541,0,0,-2.7597,-2.7655,-2.7709,-2.7831,-2.7884,-2.7976,-2.7924,-2.8023,-2.8091,-2.8077,-2.8203,-2.8242,-2.8321,-2.8461,-2.8525,-2.8498,-2.8736,-2.8667,-2.8676,-2.8684,-2.8763,-2.8785,-2.8804,-2.8548,-2.8547,-2.8546,0,0,-2.774,-2.7792,-2.7897,-2.7951,-2.8032,-2.8061,-2.8087,-2.8166,-2.8191,-2.8317,-2.8309,-2.8391,-2.8543,-2.86,-2.8649,-2.8814,-2.8803,-2.8841,-2.8918,-2.8997,-2.9015,-2.9032,-2.9091,-2.9112,-2.8855,-2.8855,-2.8855,0,-2.7795,-2.7932,-2.7952,-2.8052,-2.8107,-2.8098,-2.8205,-2.8257,-2.8362,-2.84,-2.8368,-2.856,-2.8612,-2.8765,-2.8805,-2.8845,-2.8875,-2.8832,-2.9011,-2.9028,-2.9043,-2.91,-2.9122,-2.8859,-2.8859,-2.8858,-2.8858,0,-2.7997,-2.8092,-2.8167,-2.8269,-2.8331,-2.8434,-2.8471,-2.8532,-2.8537,-2.857,-2.8699,-2.8761,-2.8859,-2.8896,-2.8903,-2.9051,-2.9032,-2.9005,-2.8949,-2.9069,-2.9123,-2.9145,-2.8865,-2.8863,-2.8862,-2.8861,0,0,-2.8169,-2.828,-2.8307,-2.8353,-2.8442,-2.8516,-2.8619,-2.8715,-2.8768,-2.884,-2.8928,-2.9057,-2.9034,-2.9089,-2.9102,-2.9172,-2.9299,-2.9137,-2.9139,-2.9166,-2.9468,-2.9488,-2.9512,-2.9293,-2.9297,-2.93,-2.9461,0,-2.8321,-2.8502,-2.8523,-2.8686,-2.8774,-2.8767,-2.8857,-2.8922,-2.8955,-2.9035,-2.9072,-2.9164,-2.9125,-2.9159,-2.9227,-2.9269,-2.936,-2.9258,-2.9375,-2.9379,-2.9356,-2.9541,-2.9562,-2.9711,-2.9482,-2.9486,-2.9489,0,-2.8522,-2.8601,-2.8772,-2.8849,-2.8887,-2.8967,-2.9057,-2.9134,-2.9207,-2.9226,-2.9289,-2.9292,-2.9399,-2.9338,-2.9486,-2.9416,-2.9465,-2.9493,-2.9499,-2.9512,-2.9442,-2.9559,-2.9759,-2.9782,-2.9522,-2.9519,-2.9517,0,-2.8632,-2.878,-2.8901,-2.8941,-2.9034,-2.9091,-2.9132,-2.9201,-2.9258,-2.9336,-2.9373,-2.9464,-2.9513,-2.9583,-2.9612,-2.9564,-2.9759,-2.9699,-2.9779,-2.9778,-2.9821,-2.9818,-3.0032,-2.9851,-2.9851,-2.985,-2.985,0,-2.88,-2.8905,-2.8952,-2.9027,-2.9144,-2.9168,-2.9284,-2.9323,-2.9385,-2.9468,-2.9467,-2.9545,-2.9577,-2.966,-2.9683,-2.9803,-2.9825,-2.9844,-2.9849,-2.9845,-2.9843,-2.9878,-2.9869,-2.9856,-2.9855,-2.9854,-2.9853,0,-2.8942,-2.8977,-2.911,-2.9187,-2.9208,-2.9292,-2.9358,-2.9431,-2.9463,-2.9568,-2.9594,-2.9645,-2.9743,-2.9778,-2.9897,-2.9912,-3.0052,-3.0047,-3.0027,-3.0028,-3.0106,-3.0099,-3.0352,-3.0387,-3.0181,-3.0183,-3.0185,0,-2.9047,-2.9128,-2.9213,-2.9269,-2.9312,-2.9401,-2.9459,-2.9485,-2.9545,-2.9635,-2.9697,-2.9795,-2.9874,-3.0031,-3.0079,-3.017,-3.0169,-3.0251,-3.0183,-3.0176,-3.0171,-3.0167,-3.0175,-3.0264,-3.0266,-3.0268,-3.0269,0,-2.9231,-2.9244,-2.9327,-2.9417,-2.9485,-2.9557,-2.9627,-2.9672,-2.9709,-2.9777,-2.9877,-2.9938,-3.006,-3.0157,-3.0251,-3.0294,-3.0289,-3.0291,-3.0314,-3.0311,-3.0296,-3.0306,-3.0063,-3.0285,-3.0283,-3.0282,-3.0281,-3.0281,-2.9359,-2.943,-2.9502,-2.9594,-2.9649,-2.9714,-2.9787,-2.9828,-2.9912,-3.0013,-3.0023,-3.0131,-3.0203,-3.0328,-3.0376,-3.0461,-3.0438,-3.0472,-3.0481,-3.0489,-3.0495,-3.0282,-3.0478,-3.0477,-3.0477,-3.0477,-3.0477,0,-2.9543,-2.9589,-2.9673,-2.9771,-2.9844,-2.9831,-2.9908,-2.997,-3.0065,-3.0132,-3.021,-3.0326,-3.042,-3.0475,-3.057,-3.0628,-3.0628,-3.0652,-3.0648,-3.0659,-3.0509,-3.048,-3.065,-3.065,-3.065,-3.065,-3.065,-3.065,-2.9648,-2.9768,-2.9791,-2.9939,-2.9984,-3.0089,-3.0134,-3.0195,-3.0249,-3.0377,-3.0456,-3.0491,-3.0554,-3.0653,-3.0739,-3.0753,-3.0788,-3.0815,-3.0827,-3.0687,-3.0669,-3.0652,-3.0624,-3.0822,-3.0822,-3.0969,-3.097,-3.0971]}]]